STF-1 (43852 NORAD) Tracking and Keplerian Element Data

This shows tracking and keplerian element data for the satellite.

Feedback or suggestion? Click here.




ElementValue
Catalog43852
NameSTF-1
Epoch Orbit2437
Epoch Day145.76352131
Epoch Year2019
RAAN72.4593
Inclination85.0355
Eccentricity0.0017552
Argument of Perigee74.2187
Mean Anonmoly286.1069
Mean Motion15.20557243
Decay Rate4.2E-07
L11 43852U 18104D 19145.76352131 .00000042 00000-0 00000-0 0 9990
L22 43852 85.0355 72.4593 0017552 74.2187 286.1069 15.20557243 24371

Live tracking and technical data element details for STF-1 (NORAD 43852). STF-1 can be tracked NOW for your location showing map with azimuth and elevation plus other details from your city location.

Track the satellite on the map from your city or location and see movement details for azimuth, elevation, latitude, longitude, range, height, and movement on the map or in text.







IsCatalogInMostPopularTable: catalog: 43852, numindb: 73
Update: records affected: 1



GetName: 43852 STF-1

Hit Count: updated at: Sun, 26 May 2019 08:53:46 GMT